Fort Indiantown Gap, PA

9:33 PM EST on December 14, 2019 (GMT -0500)
Muir Army Air Field

Weather History for KMUI - October, 2019

Change the Weather History Date:

Monday, October 14, 2019

  Actual Average Record
Temperature  
Mean Temperature 56 °F -  
Max Temperature 70 °F 61 °F 78 °F (2008)
Min Temperature 42 °F 44 °F 36 °F (2007)
Degree Days  
Heating Degree Days 9    
Growing Degree Days 6 (Base 50)    
Moisture  
Dew Point 43 °F    
Average Humidity 74    
Maximum Humidity 100    
Minimum Humidity 32    
Precipitation  
Precipitation 0.00 in - - ()
Sea Level Pressure  
Sea Level Pressure 30.00 in    
Wind  
Wind Speed 2 mph (West)    
Max Wind Speed 14 mph    
Max Gust Speed 20 mph    
Visibility 7 miles    
Events Fog    
Averages and records for this station are not official NWS values.
T = Trace of Precipitation, MM = Missing Value Source: NWS Daily Summary

Daily Weather History Graph

Daily Weather History Graph

Search for Another Location

Airport or City:

Astronomy

Oct. 14, 2019 Rise Set
Actual Time 7:15 AM EDT 6:28 PM EDT
Civil Twilight 6:48 AM EDT 6:55 PM EDT
Nautical Twilight 6:16 AM EDT 7:27 PM EDT
Astronomical Twilight 5:45 AM EDT 7:58 PM EDT
Moon 7:17 PM EDT (10/14) 7:45 AM EDT (10/14)
Length of Visible Light 12h 07m
Length of Day
11h 12m
Waxing Gibbous, 99% of the Moon is Illuminated
Oct 14
Waxing Gibbous
Oct 21
Last Quarter
Oct 27
New
Nov 4
First Quarter
Nov 12
Full

Hourly Weather History & Observations

Time (EDT) Temp. Dew Point Humidity Pressure Visibility Wind Dir Wind Speed Gust Speed Precip Events Conditions
12:56 AM 54.9 °F 48.7 °F 80% 30.00 in 9.0 mi Calm Calm - N/A   Overcast
1:56 AM 54.3 °F 48.9 °F 82% 30.00 in 10.0 mi Calm Calm - N/A   Overcast
2:28 AM 53.6 °F 48.2 °F 82% 29.99 in 10.0 mi Calm Calm - N/A   Overcast
2:56 AM 54.7 °F 48.6 °F 80% 29.98 in 10.0 mi Calm Calm - N/A   Unknown
3:20 AM 53.6 °F 48.2 °F 82% 29.97 in 10.0 mi Calm Calm - N/A   Overcast
3:44 AM 53.6 °F 48.2 °F 82% 29.97 in 10.0 mi Calm Calm - N/A   Scattered Clouds
3:56 AM 53.1 °F 48.4 °F 84% 29.96 in 10.0 mi Calm Calm - N/A   Partly Cloudy
4:56 AM 48.0 °F 46.4 °F 94% 29.97 in 10.0 mi Calm Calm - N/A   Clear
5:56 AM 46.9 °F 45.5 °F 95% 29.98 in 7.0 mi Calm Calm - N/A   Clear
6:20 AM 46.4 °F 44.6 °F 93% 29.99 in 1.4 mi Calm Calm - N/A   Clear
6:24 AM 44.6 °F 42.8 °F 93% 29.99 in 1.0 mi Calm Calm - N/A   Clear
6:26 AM 44.6 °F 42.8 °F 93% 29.99 in 1.2 mi Calm Calm - N/A   Clear
6:36 AM 44.6 °F 42.8 °F 93% 30.00 in 0.6 mi Calm Calm - N/A   Clear
6:44 AM 44.6 °F 44.6 °F 100% 30.00 in 1.0 mi Calm Calm - N/A   Clear
6:54 AM 44.6 °F 42.8 °F 93% 30.00 in 6.0 mi Calm Calm - N/A   Clear
6:56 AM 44.4 °F 43.3 °F 96% 30.00 in 7.0 mi Calm Calm - N/A   Clear
7:20 AM 42.8 °F 41.0 °F 93% 30.00 in 1.6 mi Calm Calm - N/A   Clear
7:22 AM 42.8 °F 41.0 °F 93% 30.00 in 1.0 mi Calm Calm - N/A   Clear
7:29 AM 42.8 °F 42.8 °F 100% 30.00 in 0.5 mi Calm Calm - N/A Fog Fog
7:37 AM 42.8 °F 42.8 °F 100% 30.01 in 0.2 mi Calm Calm - N/A Fog Fog
7:45 AM 42.8 °F 41.0 °F 93% 30.01 in 0.1 mi Calm Calm - N/A Fog Fog
7:56 AM 43.2 °F 42.1 °F 96% 30.01 in 0.1 mi Calm Calm - N/A Fog Fog
8:04 AM 42.8 °F 42.8 °F 100% 30.02 in 0.2 mi Calm Calm - N/A Fog Fog
8:20 AM 44.6 °F 44.6 °F 100% 30.04 in 0.5 mi Calm Calm - N/A Fog Fog
8:28 AM 46.4 °F 46.4 °F 100% 30.03 in 1.1 mi Calm Calm - N/A   Mostly Cloudy
8:36 AM 48.2 °F 46.4 °F 93% 30.03 in 3.0 mi Calm Calm - N/A   Mostly Cloudy
8:56 AM 49.3 °F 48.9 °F 99% 30.04 in 10.0 mi Calm Calm - N/A   Scattered Clouds
9:56 AM 53.8 °F 52.2 °F 94% 30.04 in 10.0 mi SW 5.8 mph - N/A   Clear
10:56 AM 59.7 °F 46.8 °F 62% 30.03 in 10.0 mi SW 6.9 mph - N/A   Clear
11:56 AM 64.4 °F 44.8 °F 49% 30.02 in 10.0 mi SW 6.9 mph - N/A   Clear
12:56 PM 66.7 °F 43.5 °F 43% 30.00 in 10.0 mi SW 9.2 mph - N/A   Clear
1:56 PM 68.7 °F 42.1 °F 38% 29.98 in 10.0 mi SW 13.8 mph - N/A   Clear
2:35 PM 69.8 °F 41.0 °F 35% 29.96 in 10.0 mi SW 12.7 mph 19.6 mph N/A   Partly Cloudy
2:56 PM 70.5 °F 39.2 °F 32% 29.95 in 10.0 mi WSW 8.1 mph 18.4 mph N/A   Scattered Clouds
3:56 PM 70.5 °F 40.1 °F 33% 29.95 in 10.0 mi SW 12.7 mph 19.6 mph N/A   Partly Cloudy
4:56 PM 70.2 °F 38.8 °F 32% 29.95 in 10.0 mi WSW 10.4 mph 17.3 mph N/A   Clear
5:56 PM 68.4 °F 39.6 °F 35% 29.96 in 10.0 mi WNW 3.5 mph - N/A   Clear
6:56 PM 65.1 °F 38.1 °F 37% 29.98 in 10.0 mi WNW 8.1 mph - N/A   Clear
7:56 PM 63.1 °F 37.8 °F 39% 30.02 in 10.0 mi NW 9.2 mph 17.3 mph N/A   Clear
8:56 PM 61.7 °F 37.8 °F 41% 30.04 in 10.0 mi NW 5.8 mph - N/A   Clear
9:56 PM 60.4 °F 37.8 °F 43% 30.05 in 10.0 mi NNW 9.2 mph 18.4 mph N/A   Clear
10:56 PM 59.2 °F 37.8 °F 45% 30.07 in 10.0 mi NNW 6.9 mph - N/A   Clear
11:56 PM 57.6 °F 36.9 °F 46% 30.09 in 10.0 mi NW 5.8 mph - N/A   Clear